UAE373 VTBS-OMDB

Flight info

Callsign UAE373
Flight time 5h 31m
Altitude 40000
Route PASTO1G PASTO L301 RAGMA N571 VUSET A454 PASOV B540 KUPMA/N0469F240 B540 MIVEK P574 IMPED
Aircraft A359/H-SDE2E3GHIJ3J4J5LM1ORWXY/LB1D1

Departure

Time 2026-04-26 10:09
Airport Suvarnabhumi Airport (VTBS)

Arrival

Time 2026-04-26 15:40
Airport Dubai International Airport (OMDB)
Time Latitude Longitude Altitude Speed Heading
2026-04-26 09:41 13.68867 100.75041 14 ft 0 kts 290°
2026-04-26 09:53 13.68866 100.75042 14 ft 1 kts 290°
2026-04-26 09:54 13.68861 100.75056 14 ft 1 kts 290°
2026-04-26 09:54 13.68856 100.75070 14 ft 2 kts 290°
2026-04-26 09:54 13.68853 100.75079 14 ft 2 kts 290°
2026-04-26 09:54 13.68849 100.75094 14 ft 2 kts 270°
2026-04-26 09:55 13.68851 100.75109 14 ft 2 kts 253°
2026-04-26 09:55 13.68857 100.75123 14 ft 2 kts 237°
2026-04-26 09:55 13.68866 100.75135 14 ft 2 kts 220°
2026-04-26 09:55 13.68878 100.75143 14 ft 2 kts 204°
2026-04-26 09:56 13.68887 100.75146 14 ft 0 kts 194°
2026-04-26 09:56 13.68889 100.75147 14 ft 0 kts 193°
2026-04-26 09:58 13.68887 100.75146 14 ft 0 kts 193°
2026-04-26 09:58 13.68866 100.75141 14 ft 5 kts 193°
2026-04-26 09:59 13.68816 100.75127 14 ft 9 kts 195°
2026-04-26 09:59 13.68743 100.75108 14 ft 12 kts 194°
2026-04-26 09:59 13.68651 100.75081 14 ft 15 kts 207°
2026-04-26 09:59 13.68627 100.74983 14 ft 16 kts 286°
2026-04-26 10:00 13.68658 100.74860 14 ft 19 kts 284°
2026-04-26 10:00 13.68694 100.74715 14 ft 22 kts 284°
2026-04-26 10:00 13.68734 100.74553 14 ft 24 kts 284°
2026-04-26 10:00 13.68778 100.74374 14 ft 27 kts 284°
2026-04-26 10:01 13.68806 100.74264 14 ft 12 kts 285°
2026-04-26 10:01 13.68829 100.74173 14 ft 13 kts 286°
2026-04-26 10:01 13.68899 100.74117 14 ft 14 kts 358°
2026-04-26 10:01 13.68987 100.74133 14 ft 12 kts 15°
2026-04-26 10:02 13.69075 100.74159 14 ft 13 kts 15°
2026-04-26 10:02 13.69168 100.74184 14 ft 15 kts 14°
2026-04-26 10:02 13.69278 100.74213 14 ft 17 kts 14°
2026-04-26 10:02 13.69397 100.74244 14 ft 18 kts 14°
2026-04-26 10:03 13.69526 100.74277 14 ft 19 kts 14°
2026-04-26 10:03 13.69655 100.74311 14 ft 19 kts 14°
2026-04-26 10:03 13.69789 100.74345 14 ft 20 kts 14°
2026-04-26 10:03 13.69925 100.74382 14 ft 20 kts 14°
2026-04-26 10:04 13.70062 100.74418 14 ft 11 kts 14°
2026-04-26 10:04 13.70138 100.74437 14 ft 7 kts 12°
2026-04-26 10:04 13.70185 100.74442 14 ft 3 kts 352°
2026-04-26 10:04 13.70198 100.74438 14 ft 0 kts 339°
2026-04-26 10:05 13.70199 100.74438 14 ft 0 kts 328°
2026-04-26 10:05 13.70203 100.74434 14 ft 1 kts 317°
2026-04-26 10:05 13.70212 100.74425 14 ft 3 kts 316°
2026-04-26 10:05 13.70233 100.74380 14 ft 6 kts 284°
2026-04-26 10:06 13.70234 100.74377 14 ft 0 kts 283°
2026-04-26 10:06 13.70236 100.74369 14 ft 2 kts 284°
2026-04-26 10:06 13.70236 100.74367 14 ft 0 kts 284°
2026-04-26 10:07 13.70237 100.74367 14 ft 0 kts 284°
2026-04-26 10:07 13.70242 100.74333 14 ft 9 kts 268°
2026-04-26 10:07 13.70191 100.74277 14 ft 11 kts 199°
2026-04-26 10:07 13.70140 100.74264 14 ft 6 kts 193°
2026-04-26 10:08 13.69846 100.74187 15 ft 80 kts 194°
2026-04-26 10:08 13.69099 100.73991 15 ft 143 kts 194°
2026-04-26 10:08 13.67952 100.73689 109 ft 186 kts 194°
2026-04-26 10:08 13.66659 100.73299 573 ft 205 kts 202°
2026-04-26 10:09 13.65350 100.72742 1399 ft 204 kts 199°
2026-04-26 10:09 13.64090 100.72358 2297 ft 188 kts 195°
2026-04-26 10:09 13.62814 100.72040 2692 ft 193 kts 192°
2026-04-26 10:09 13.61463 100.71724 2976 ft 205 kts 193°
2026-04-26 10:10 13.60030 100.71381 3256 ft 218 kts 193°
2026-04-26 10:10 13.58508 100.71021 3534 ft 231 kts 193°
2026-04-26 10:10 13.56887 100.70641 3828 ft 247 kts 193°
2026-04-26 10:10 13.55234 100.70077 4185 ft 260 kts 211°
2026-04-26 10:11 13.53889 100.68787 4541 ft 273 kts 239°
2026-04-26 10:11 13.53266 100.66928 5102 ft 278 kts 266°
2026-04-26 10:11 13.53492 100.64972 5754 ft 280 kts 284°
2026-04-26 10:11 13.53991 100.63075 6391 ft 282 kts 285°
2026-04-26 10:12 13.54519 100.61124 7021 ft 285 kts 285°
2026-04-26 10:12 13.55251 100.59240 7629 ft 288 kts 305°
2026-04-26 10:12 13.56706 100.57825 8243 ft 291 kts 332°
2026-04-26 10:12 13.58616 100.57223 8846 ft 293 kts 357°
2026-04-26 10:13 13.60652 100.57242 9472 ft 295 kts
2026-04-26 10:13 13.62715 100.57337 9845 ft 297 kts
2026-04-26 10:13 13.64781 100.57425 9945 ft 298 kts
2026-04-26 10:13 13.66834 100.57497 9957 ft 298 kts
2026-04-26 10:14 13.68928 100.57558 10198 ft 306 kts
2026-04-26 10:14 13.71110 100.57619 10499 ft 320 kts
2026-04-26 10:14 13.73378 100.57680 10782 ft 334 kts
2026-04-26 10:14 13.75756 100.57713 11053 ft 348 kts 356°
2026-04-26 10:15 13.78179 100.57286 11315 ft 361 kts 342°
2026-04-26 10:15 13.80527 100.56207 11578 ft 374 kts 330°
2026-04-26 10:15 13.82778 100.54801 11835 ft 386 kts 328°
2026-04-26 10:15 13.85077 100.53302 12172 ft 396 kts 328°
2026-04-26 10:16 13.87407 100.51798 12686 ft 400 kts 328°
2026-04-26 10:16 13.89775 100.50291 13243 ft 402 kts 328°
2026-04-26 10:16 13.92084 100.48666 13759 ft 405 kts 318°
2026-04-26 10:16 13.93870 100.46402 14263 ft 408 kts 298°
2026-04-26 10:17 13.94834 100.43672 14768 ft 411 kts 281°
2026-04-26 10:17 13.95266 100.40794 15306 ft 413 kts 277°
2026-04-26 10:17 13.95637 100.37826 15796 ft 416 kts 277°
2026-04-26 10:17 13.96014 100.34865 16283 ft 419 kts 277°
2026-04-26 10:18 13.96410 100.31898 16772 ft 422 kts 278°
2026-04-26 10:18 13.96826 100.28889 17260 ft 425 kts 278°
2026-04-26 10:18 13.97235 100.25893 17735 ft 428 kts 277°
2026-04-26 10:18 13.97524 100.22813 18209 ft 430 kts 274°
2026-04-26 10:19 13.97670 100.19750 18671 ft 433 kts 272°
2026-04-26 10:19 13.97786 100.16644 19134 ft 436 kts 272°
2026-04-26 10:19 13.97896 100.13522 19586 ft 439 kts 272°
2026-04-26 10:19 13.98008 100.10353 20037 ft 441 kts 272°
2026-04-26 10:20 13.98120 100.07209 20479 ft 444 kts 272°
2026-04-26 10:20 13.98234 100.04037 20918 ft 447 kts 272°
2026-04-26 10:20 13.98348 100.00826 21354 ft 449 kts 272°
2026-04-26 10:20 13.98463 99.97601 21785 ft 452 kts 272°
2026-04-26 10:21 13.98577 99.94384 22208 ft 455 kts 272°
2026-04-26 10:21 13.98694 99.91088 22635 ft 457 kts 272°
2026-04-26 10:21 13.98809 99.87846 23048 ft 460 kts 272°
2026-04-26 10:21 13.98926 99.84540 23458 ft 462 kts 272°
2026-04-26 10:22 13.99043 99.81241 23851 ft 465 kts 272°
2026-04-26 10:22 13.99159 99.77923 24231 ft 467 kts 272°
2026-04-26 10:22 13.99277 99.74570 24601 ft 470 kts 272°
2026-04-26 10:22 13.99394 99.71195 24960 ft 472 kts 272°
2026-04-26 10:23 13.99513 99.67788 25310 ft 474 kts 272°
2026-04-26 10:23 13.99630 99.64392 25648 ft 476 kts 272°
2026-04-26 10:23 13.99748 99.60981 25972 ft 479 kts 272°
2026-04-26 10:23 13.99866 99.57567 26284 ft 481 kts 272°
2026-04-26 10:24 13.99983 99.54125 26587 ft 483 kts 272°
2026-04-26 10:24 14.00122 99.50670 26879 ft 485 kts 274°
2026-04-26 10:24 14.00396 99.47204 27172 ft 486 kts 275°
2026-04-26 10:24 14.00725 99.43717 27554 ft 486 kts 276°
2026-04-26 10:25 14.01058 99.40298 27971 ft 484 kts 276°
2026-04-26 10:25 14.01395 99.36827 28383 ft 483 kts 276°
2026-04-26 10:25 14.01722 99.33442 28761 ft 482 kts 275°
2026-04-26 10:25 14.02055 99.29968 29131 ft 481 kts 275°
2026-04-26 10:26 14.02376 99.26595 29481 ft 480 kts 275°
2026-04-26 10:26 14.02702 99.23165 29831 ft 479 kts 275°
2026-04-26 10:26 14.03027 99.19745 30171 ft 479 kts 275°
2026-04-26 10:26 14.03347 99.16366 30500 ft 478 kts 275°
2026-04-26 10:27 14.03672 99.12942 30824 ft 477 kts 275°
2026-04-26 10:27 14.03990 99.09570 31132 ft 476 kts 275°
2026-04-26 10:27 14.04312 99.06168 31437 ft 476 kts 275°
2026-04-26 10:27 14.04632 99.02776 31738 ft 475 kts 275°
2026-04-26 10:28 14.04947 98.99428 32030 ft 474 kts 275°
2026-04-26 10:28 14.05256 98.96021 32313 ft 473 kts 275°
2026-04-26 10:28 14.05495 98.92661 32579 ft 473 kts 274°
2026-04-26 10:28 14.05708 98.89275 32844 ft 472 kts 274°
2026-04-26 10:29 14.05914 98.85927 33105 ft 472 kts 274°
2026-04-26 10:29 14.06124 98.82549 33361 ft 471 kts 274°
2026-04-26 10:29 14.06334 98.79212 33608 ft 471 kts 274°
2026-04-26 10:29 14.06550 98.75840 33849 ft 470 kts 274°
2026-04-26 10:30 14.06765 98.72475 34083 ft 469 kts 274°
2026-04-26 10:30 14.06979 98.69144 34306 ft 469 kts 274°
2026-04-26 10:30 14.07194 98.65806 34526 ft 468 kts 274°
2026-04-26 10:30 14.07407 98.62485 34737 ft 468 kts 274°
2026-04-26 10:31 14.07623 98.59115 34946 ft 467 kts 274°
2026-04-26 10:31 14.07835 98.55794 35143 ft 467 kts 274°
2026-04-26 10:31 14.08046 98.52482 35336 ft 467 kts 274°
2026-04-26 10:31 14.08260 98.49123 35527 ft 466 kts 274°
2026-04-26 10:32 14.08471 98.45799 35711 ft 466 kts 274°
2026-04-26 10:32 14.08680 98.42501 35884 ft 465 kts 274°
2026-04-26 10:32 14.08891 98.39162 36048 ft 465 kts 274°
2026-04-26 10:32 14.09100 98.35856 36207 ft 465 kts 274°
2026-04-26 10:33 14.09309 98.32536 36357 ft 464 kts 274°
2026-04-26 10:33 14.09517 98.29221 36498 ft 464 kts 274°
2026-04-26 10:33 14.09726 98.25926 36627 ft 464 kts 274°
2026-04-26 10:33 14.10046 98.22595 36755 ft 464 kts 277°
2026-04-26 10:34 14.10538 98.19350 36871 ft 464 kts 281°
2026-04-26 10:34 14.11226 98.16066 36984 ft 465 kts 284°
2026-04-26 10:34 14.12022 98.12866 37093 ft 465 kts 284°
2026-04-26 10:34 14.12839 98.09660 37201 ft 465 kts 284°
2026-04-26 10:35 14.13659 98.06436 37309 ft 465 kts 284°
2026-04-26 10:35 14.14472 98.03230 37415 ft 465 kts 284°
2026-04-26 10:35 14.16095 97.96787 37606 ft 465 kts 284°
2026-04-26 10:36 14.17710 97.90342 37791 ft 465 kts 284°
2026-04-26 10:36 14.19322 97.83894 37964 ft 466 kts 284°
2026-04-26 10:37 14.20930 97.77452 38103 ft 466 kts 284°
2026-04-26 10:37 14.22540 97.70991 38222 ft 467 kts 284°
2026-04-26 10:38 14.24153 97.64512 38336 ft 468 kts 284°
2026-04-26 10:38 14.25770 97.58012 38447 ft 469 kts 284°
2026-04-26 10:39 14.27384 97.51512 38555 ft 470 kts 284°
2026-04-26 10:39 14.29003 97.44983 38654 ft 471 kts 284°
2026-04-26 10:40 14.30625 97.38435 38746 ft 471 kts 284°
2026-04-26 10:40 14.32244 97.31885 38835 ft 472 kts 284°
2026-04-26 10:41 14.33855 97.25333 38918 ft 473 kts 284°
2026-04-26 10:41 14.35469 97.18777 38987 ft 473 kts 284°
2026-04-26 10:42 14.37085 97.12215 39058 ft 474 kts 284°
2026-04-26 10:42 14.38711 97.05607 39123 ft 475 kts 284°
2026-04-26 10:43 14.40330 96.99025 39187 ft 475 kts 284°
2026-04-26 10:43 14.41949 96.92434 39242 ft 476 kts 284°
2026-04-26 10:44 14.43567 96.85837 39293 ft 476 kts 284°
2026-04-26 10:44 14.45194 96.79190 39345 ft 477 kts 284°
2026-04-26 10:45 14.46812 96.72575 39386 ft 477 kts 284°
2026-04-26 10:45 14.48421 96.65986 39427 ft 478 kts 284°
2026-04-26 10:46 14.50046 96.59325 39462 ft 478 kts 284°
2026-04-26 10:46 14.51664 96.52685 39500 ft 478 kts 284°
2026-04-26 10:47 14.53278 96.46051 39536 ft 479 kts 284°
2026-04-26 10:47 14.54899 96.39381 39573 ft 479 kts 284°
2026-04-26 10:48 14.56510 96.32736 39596 ft 480 kts 284°
2026-04-26 10:48 14.58127 96.26036 39627 ft 480 kts 284°
2026-04-26 10:49 14.59735 96.19373 39647 ft 480 kts 284°
2026-04-26 10:49 14.61344 96.12711 39678 ft 481 kts 284°
2026-04-26 10:50 14.62699 96.07098 39691 ft 481 kts 284°
2026-04-26 10:50 14.64571 95.99333 39717 ft 481 kts 284°
2026-04-26 10:51 14.66999 95.89243 39743 ft 482 kts 284°
2026-04-26 10:52 14.68604 95.82564 39762 ft 482 kts 284°
2026-04-26 10:52 14.70212 95.75863 39776 ft 482 kts 284°
2026-04-26 10:53 14.71823 95.69141 39798 ft 483 kts 284°
2026-04-26 10:53 14.73437 95.62398 39820 ft 483 kts 284°
2026-04-26 10:54 14.75847 95.52308 39849 ft 483 kts 284°
2026-04-26 10:54 14.77445 95.45606 39867 ft 483 kts 284°
2026-04-26 10:55 14.79052 95.38862 39884 ft 483 kts 284°
2026-04-26 10:55 14.80645 95.32156 39899 ft 483 kts 284°
2026-04-26 10:56 14.82238 95.25420 39901 ft 484 kts 284°
2026-04-26 10:56 14.83835 95.18671 39908 ft 484 kts 284°
2026-04-26 10:57 14.85431 95.11932 39920 ft 484 kts 284°
2026-04-26 10:57 14.87028 95.05179 39931 ft 484 kts 284°
2026-04-26 10:58 14.88620 94.98438 39941 ft 484 kts 284°
2026-04-26 10:58 14.90209 94.91698 39948 ft 484 kts 284°
2026-04-26 10:59 14.91797 94.84956 39950 ft 484 kts 284°
2026-04-26 10:59 14.93385 94.78203 39950 ft 484 kts 284°
2026-04-26 11:00 14.94979 94.71420 39950 ft 484 kts 284°
2026-04-26 11:00 14.96565 94.64656 39950 ft 484 kts 284°
2026-04-26 11:01 14.98144 94.57914 39950 ft 484 kts 284°
2026-04-26 11:01 14.99722 94.51169 39950 ft 484 kts 284°
2026-04-26 11:02 15.01302 94.44405 39950 ft 484 kts 284°
2026-04-26 11:02 15.02884 94.37624 39949 ft 484 kts 284°
2026-04-26 11:03 15.04455 94.30866 39950 ft 484 kts 283°
2026-04-26 11:03 15.06023 94.24100 39950 ft 484 kts 283°
2026-04-26 11:04 15.07585 94.17363 39950 ft 484 kts 283°
2026-04-26 11:04 15.09160 94.10565 39950 ft 484 kts 283°
2026-04-26 11:05 15.10730 94.03823 39950 ft 484 kts 284°
2026-04-26 11:05 15.12323 93.97065 39950 ft 484 kts 283°
2026-04-26 11:06 15.13905 93.90282 39950 ft 484 kts 283°
2026-04-26 11:06 15.15475 93.83498 39950 ft 485 kts 283°
2026-04-26 11:07 15.17027 93.76763 39950 ft 485 kts 283°
2026-04-26 11:07 15.18586 93.69983 39950 ft 485 kts 283°
2026-04-26 11:08 15.20142 93.63204 39950 ft 485 kts 283°
2026-04-26 11:08 15.21699 93.56412 39950 ft 485 kts 283°
2026-04-26 11:09 15.23245 93.49661 39950 ft 485 kts 283°
2026-04-26 11:09 15.24791 93.42896 39950 ft 485 kts 283°
2026-04-26 11:10 15.26343 93.36095 39950 ft 485 kts 283°
2026-04-26 11:10 15.27878 93.29337 39950 ft 485 kts 283°
2026-04-26 11:11 15.29423 93.22524 39950 ft 485 kts 283°
2026-04-26 11:11 15.30959 93.15752 39950 ft 485 kts 283°
2026-04-26 11:12 15.32500 93.08956 39950 ft 485 kts 283°
2026-04-26 11:12 15.34031 93.02196 39950 ft 485 kts 283°
2026-04-26 11:13 15.35570 92.95388 39950 ft 485 kts 283°
2026-04-26 11:13 15.37096 92.88627 39950 ft 485 kts 283°
2026-04-26 11:14 15.38627 92.81832 39950 ft 485 kts 283°
2026-04-26 11:14 15.40149 92.75059 39950 ft 485 kts 283°
2026-04-26 11:15 15.41677 92.68244 39950 ft 485 kts 283°
2026-04-26 11:15 15.43212 92.61470 39950 ft 485 kts 284°
2026-04-26 11:16 15.44884 92.54729 39950 ft 485 kts 284°
2026-04-26 11:16 15.46572 92.47981 39950 ft 485 kts 284°
2026-04-26 11:17 15.48248 92.41218 39950 ft 485 kts 284°
2026-04-26 11:17 15.49911 92.34472 39950 ft 484 kts 284°
2026-04-26 11:18 15.51566 92.27713 39950 ft 484 kts 284°
2026-04-26 11:18 15.53219 92.20964 39950 ft 484 kts 284°
2026-04-26 11:19 15.54874 92.14202 39950 ft 484 kts 284°
2026-04-26 11:19 15.56529 92.07436 39950 ft 484 kts 284°
2026-04-26 11:20 15.57901 92.01821 39950 ft 484 kts 284°
2026-04-26 11:20 15.59821 91.93922 39950 ft 484 kts 284°
2026-04-26 11:21 15.61446 91.87183 39950 ft 484 kts 284°
2026-04-26 11:21 15.63081 91.80384 39950 ft 484 kts 284°
2026-04-26 11:22 15.64700 91.73641 39950 ft 484 kts 284°
2026-04-26 11:22 15.66325 91.66866 39950 ft 484 kts 284°
2026-04-26 11:23 15.67946 91.60093 39950 ft 484 kts 284°
2026-04-26 11:23 15.69569 91.53303 39950 ft 484 kts 284°
2026-04-26 11:24 15.71186 91.46527 39950 ft 484 kts 284°
2026-04-26 11:24 15.72802 91.39749 39950 ft 484 kts 284°
2026-04-26 11:25 15.74409 91.32993 39950 ft 484 kts 284°
2026-04-26 11:25 15.76014 91.26209 39950 ft 484 kts 284°
2026-04-26 11:26 15.77621 91.19423 39950 ft 484 kts 284°
2026-04-26 11:26 15.79221 91.12663 39950 ft 484 kts 284°
2026-04-26 11:27 15.80823 91.05894 39950 ft 484 kts 284°
2026-04-26 11:27 15.82429 90.99094 39950 ft 484 kts 284°
2026-04-26 11:28 15.84029 90.92313 39950 ft 484 kts 284°
2026-04-26 11:28 15.85628 90.85525 39950 ft 484 kts 284°
2026-04-26 11:29 15.87227 90.78728 39950 ft 484 kts 284°
2026-04-26 11:29 15.88822 90.71934 39950 ft 484 kts 284°
2026-04-26 11:30 15.90144 90.66298 39950 ft 484 kts 284°
2026-04-26 11:30 15.91997 90.58384 39950 ft 484 kts 284°
2026-04-26 11:31 15.93588 90.51579 39950 ft 484 kts 284°
2026-04-26 11:31 15.95172 90.44795 39950 ft 484 kts 284°
2026-04-26 11:32 15.96750 90.38024 39949 ft 484 kts 284°
2026-04-26 11:32 15.98330 90.31220 39950 ft 484 kts 283°
2026-04-26 11:33 15.99901 90.24435 39950 ft 484 kts 283°
2026-04-26 11:33 16.01479 90.17628 39950 ft 484 kts 283°
2026-04-26 11:34 16.03093 90.10855 39950 ft 485 kts 284°
2026-04-26 11:34 16.04737 90.04065 39950 ft 485 kts 284°
2026-04-26 11:35 16.06367 89.97308 39950 ft 485 kts 284°
2026-04-26 11:35 16.08004 89.90501 39950 ft 485 kts 284°
2026-04-26 11:36 16.09629 89.83727 39950 ft 485 kts 284°
2026-04-26 11:36 16.11273 89.76938 39950 ft 485 kts 284°
2026-04-26 11:37 16.12915 89.70184 39950 ft 485 kts 284°
2026-04-26 11:37 16.14548 89.63386 39950 ft 485 kts 284°
2026-04-26 11:38 16.16165 89.56610 39950 ft 485 kts 284°
2026-04-26 11:38 16.17786 89.49800 39950 ft 485 kts 284°
2026-04-26 11:39 16.19392 89.43037 39950 ft 485 kts 284°
2026-04-26 11:39 16.21005 89.36239 39950 ft 485 kts 284°
2026-04-26 11:40 16.22606 89.29449 39950 ft 485 kts 283°
2026-04-26 11:40 16.24211 89.22627 39950 ft 485 kts 283°
2026-04-26 11:42 16.30726 88.95480 39950 ft 485 kts 284°
2026-04-26 11:43 16.32382 88.88690 39950 ft 485 kts 284°
2026-04-26 11:43 16.34031 88.81901 39950 ft 485 kts 284°
2026-04-26 11:44 16.35679 88.75102 39950 ft 485 kts 284°
2026-04-26 11:44 16.37324 88.68301 39950 ft 485 kts 284°
2026-04-26 11:45 16.38969 88.61491 39950 ft 485 kts 284°
2026-04-26 11:45 16.40600 88.54727 39950 ft 485 kts 284°
2026-04-26 11:46 16.42239 88.47923 39950 ft 485 kts 284°
2026-04-26 11:46 16.43881 88.41093 39950 ft 485 kts 284°
2026-04-26 11:47 16.45511 88.34303 39950 ft 485 kts 284°
2026-04-26 11:47 16.47132 88.27512 39950 ft 485 kts 284°
2026-04-26 11:48 16.48753 88.20718 39950 ft 485 kts 284°
2026-04-26 11:48 16.50380 88.13905 39950 ft 485 kts 284°
2026-04-26 11:49 16.52003 88.07100 39950 ft 485 kts 284°
2026-04-26 11:49 16.53628 88.00276 39950 ft 485 kts 284°
2026-04-26 11:50 16.55241 87.93497 39950 ft 485 kts 284°
2026-04-26 11:50 16.56859 87.86684 39950 ft 485 kts 284°
2026-04-26 11:51 16.58474 87.79873 39950 ft 485 kts 284°
2026-04-26 11:51 16.60087 87.73061 39950 ft 485 kts 284°
2026-04-26 11:52 16.61697 87.66250 39950 ft 485 kts 284°
2026-04-26 11:52 16.63302 87.59448 39950 ft 485 kts 284°
2026-04-26 11:53 16.64909 87.52628 39950 ft 485 kts 284°
2026-04-26 11:54 16.67311 87.42412 39950 ft 485 kts 284°
2026-04-26 11:54 16.68917 87.35564 39950 ft 485 kts 284°
2026-04-26 11:55 16.70504 87.28763 39950 ft 484 kts 283°
2026-04-26 11:55 16.72092 87.21948 39950 ft 484 kts 283°
2026-04-26 11:56 16.73681 87.15142 39950 ft 484 kts 284°
2026-04-26 11:56 16.75303 87.08334 39950 ft 484 kts 284°
2026-04-26 11:57 16.76935 87.01510 39950 ft 484 kts 284°
2026-04-26 11:57 16.78560 86.94690 39950 ft 484 kts 284°
2026-04-26 11:58 16.80175 86.87888 39950 ft 484 kts 284°
2026-04-26 11:58 16.81782 86.81109 39950 ft 484 kts 284°
2026-04-26 11:59 16.83397 86.74282 39950 ft 484 kts 284°
2026-04-26 11:59 16.85006 86.67469 39950 ft 484 kts 284°
2026-04-26 12:00 16.86620 86.60628 39950 ft 484 kts 284°
2026-04-26 12:00 16.88220 86.53829 39950 ft 484 kts 284°
2026-04-26 12:01 16.89826 86.46998 39950 ft 484 kts 284°
2026-04-26 12:01 16.91431 86.40160 39949 ft 484 kts 284°
2026-04-26 12:02 16.93019 86.33384 39950 ft 484 kts 283°
2026-04-26 12:02 16.94613 86.26542 39950 ft 484 kts 283°
2026-04-26 12:03 16.96205 86.19710 39950 ft 484 kts 283°
2026-04-26 12:03 16.97792 86.12899 39950 ft 485 kts 283°
2026-04-26 12:04 16.99385 86.06059 39950 ft 485 kts 283°
2026-04-26 12:04 17.00973 85.99223 39950 ft 485 kts 283°
2026-04-26 12:05 17.02561 85.92383 39950 ft 485 kts 283°
2026-04-26 12:05 17.04138 85.85579 39950 ft 485 kts 283°
2026-04-26 12:06 17.05715 85.78761 39950 ft 485 kts 283°
2026-04-26 12:06 17.07295 85.71920 39950 ft 484 kts 283°
2026-04-26 12:07 17.08870 85.65091 39950 ft 484 kts 283°
2026-04-26 12:07 17.10456 85.58218 39950 ft 484 kts 284°
2026-04-26 12:08 17.12045 85.51429 39950 ft 484 kts 284°
2026-04-26 12:08 17.13624 85.44595 39950 ft 484 kts 283°
2026-04-26 12:09 17.15183 85.37765 39950 ft 484 kts 283°
2026-04-26 12:09 17.16745 85.30898 39950 ft 484 kts 283°
2026-04-26 12:10 17.18356 85.24101 39950 ft 484 kts 284°
2026-04-26 12:10 17.19990 85.17306 39950 ft 484 kts 284°
2026-04-26 12:11 17.21624 85.10459 39950 ft 484 kts 284°
2026-04-26 12:11 17.23244 85.03638 39950 ft 484 kts 284°
2026-04-26 12:12 17.24856 84.96833 39950 ft 484 kts 284°
2026-04-26 12:12 17.26474 84.89991 39950 ft 484 kts 284°
2026-04-26 12:13 17.28086 84.83157 39950 ft 484 kts 284°
2026-04-26 12:13 17.29695 84.76329 39950 ft 484 kts 284°
2026-04-26 12:14 17.31295 84.69518 39950 ft 484 kts 284°
2026-04-26 12:14 17.32895 84.62693 39950 ft 484 kts 284°
2026-04-26 12:15 17.34500 84.55823 39950 ft 484 kts 284°
2026-04-26 12:15 17.36093 84.49032 39950 ft 484 kts 284°
2026-04-26 12:16 17.37781 84.42192 39950 ft 484 kts 284°
2026-04-26 12:16 17.39472 84.35372 39950 ft 484 kts 284°
2026-04-26 12:17 17.41143 84.28554 39950 ft 484 kts 284°
2026-04-26 12:17 17.42800 84.21767 39950 ft 484 kts 284°
2026-04-26 12:18 17.44468 84.14930 39950 ft 484 kts 284°
2026-04-26 12:18 17.46134 84.08093 39950 ft 484 kts 284°
2026-04-26 12:19 17.47799 84.01242 39950 ft 484 kts 284°
2026-04-26 12:19 17.49450 83.94441 39950 ft 484 kts 284°
2026-04-26 12:20 17.51144 83.87634 39950 ft 484 kts 285°
2026-04-26 12:20 17.52887 83.80840 39950 ft 484 kts 285°
2026-04-26 12:21 17.54626 83.74026 39950 ft 484 kts 285°
2026-04-26 12:21 17.56353 83.67220 39950 ft 484 kts 285°
2026-04-26 12:22 17.58074 83.60416 39950 ft 484 kts 285°
2026-04-26 12:22 17.59789 83.53621 39950 ft 484 kts 285°
2026-04-26 12:23 17.61515 83.46773 39950 ft 484 kts 285°
2026-04-26 12:23 17.63222 83.39981 39950 ft 484 kts 285°
2026-04-26 12:24 17.64937 83.33137 39950 ft 484 kts 284°
2026-04-26 12:24 17.66648 83.26347 39949 ft 484 kts 286°
2026-04-26 12:25 17.69807 83.16295 39950 ft 484 kts 289°
2026-04-26 12:25 17.71976 83.09626 39950 ft 484 kts 289°
2026-04-26 12:26 17.74146 83.02918 39950 ft 484 kts 289°
2026-04-26 12:26 17.76302 82.96234 39950 ft 484 kts 289°
2026-04-26 12:27 17.78446 82.89574 39950 ft 484 kts 289°
2026-04-26 12:27 17.80609 82.82848 39950 ft 484 kts 289°
2026-04-26 12:28 17.82744 82.76198 39950 ft 484 kts 289°
2026-04-26 12:28 17.84903 82.69462 39950 ft 484 kts 289°
2026-04-26 12:29 17.87034 82.62807 39950 ft 484 kts 289°
2026-04-26 12:30 17.90254 82.52734 39950 ft 484 kts 289°
2026-04-26 12:30 17.92382 82.46066 39950 ft 484 kts 289°
2026-04-26 12:31 17.95584 82.36014 39949 ft 484 kts 289°
2026-04-26 12:31 17.97718 82.29281 39950 ft 484 kts 288°
2026-04-26 12:32 17.99837 82.22588 39950 ft 484 kts 288°
2026-04-26 12:33 18.03022 82.12535 39950 ft 484 kts 288°
2026-04-26 12:33 18.05151 82.05802 39950 ft 484 kts 288°
2026-04-26 12:34 18.07260 81.99138 39950 ft 484 kts 289°
2026-04-26 12:34 18.09454 81.92434 39950 ft 484 kts 289°
2026-04-26 12:35 18.11665 81.85773 39950 ft 484 kts 289°
2026-04-26 12:35 18.13882 81.79096 39950 ft 484 kts 289°
2026-04-26 12:36 18.16086 81.72386 39950 ft 485 kts 289°
2026-04-26 12:36 18.18271 81.65700 39950 ft 485 kts 289°
2026-04-26 12:37 18.20453 81.59006 39950 ft 485 kts 289°
2026-04-26 12:37 18.22634 81.52303 39950 ft 485 kts 289°
2026-04-26 12:38 18.24800 81.45635 39950 ft 485 kts 289°
2026-04-26 12:38 18.26976 81.38931 39950 ft 485 kts 289°
2026-04-26 12:39 18.29154 81.32202 39950 ft 485 kts 289°
2026-04-26 12:39 18.31303 81.25528 39950 ft 485 kts 289°
2026-04-26 12:40 18.33465 81.18823 39950 ft 485 kts 289°
2026-04-26 12:40 18.35629 81.12112 39950 ft 485 kts 289°
2026-04-26 12:41 18.37798 81.05381 39950 ft 485 kts 289°
2026-04-26 12:41 18.39950 80.98693 39950 ft 485 kts 289°
2026-04-26 12:42 18.42104 80.91991 39950 ft 485 kts 289°
2026-04-26 12:42 18.44260 80.85270 39950 ft 485 kts 289°
2026-04-26 12:43 18.46413 80.78548 39950 ft 485 kts 289°
2026-04-26 12:43 18.48569 80.71804 39950 ft 485 kts 289°
2026-04-26 12:44 18.50698 80.65123 39950 ft 485 kts 289°
2026-04-26 12:44 18.52839 80.58405 39950 ft 485 kts 289°
2026-04-26 12:45 18.54920 80.51636 39950 ft 485 kts 288°
2026-04-26 12:45 18.56934 80.44923 39950 ft 485 kts 288°
2026-04-26 12:46 18.58966 80.38138 39950 ft 485 kts 288°
2026-04-26 12:46 18.60990 80.31367 39950 ft 485 kts 287°
2026-04-26 12:47 18.63009 80.24589 39950 ft 485 kts 287°
2026-04-26 12:47 18.65021 80.17841 39950 ft 485 kts 287°
2026-04-26 12:48 18.67045 80.11050 39950 ft 485 kts 287°
2026-04-26 12:48 18.69056 80.04298 39950 ft 485 kts 287°
2026-04-26 12:49 18.71077 79.97507 39950 ft 485 kts 287°
2026-04-26 12:49 18.73088 79.90736 39950 ft 485 kts 287°
2026-04-26 12:50 18.75094 79.83973 39950 ft 485 kts 287°
2026-04-26 12:50 18.77111 79.77166 39950 ft 485 kts 287°
2026-04-26 12:51 18.79113 79.70396 39950 ft 485 kts 287°
2026-04-26 12:51 18.81117 79.63610 39950 ft 485 kts 287°
2026-04-26 12:52 18.83113 79.56844 39950 ft 485 kts 287°
2026-04-26 12:52 18.85111 79.50059 39950 ft 485 kts 287°
2026-04-26 12:53 18.87108 79.43268 39950 ft 485 kts 287°
2026-04-26 12:53 18.89096 79.36495 39949 ft 485 kts 287°
2026-04-26 12:54 18.91094 79.29662 39950 ft 485 kts 287°
2026-04-26 12:54 18.93066 79.22902 39950 ft 485 kts 287°
2026-04-26 12:55 18.95052 79.16098 39950 ft 485 kts 287°
2026-04-26 12:55 18.97042 79.09275 39950 ft 485 kts 287°
2026-04-26 12:56 18.99016 79.02504 39950 ft 485 kts 287°
2026-04-26 12:56 19.00997 78.95695 39950 ft 485 kts 287°
2026-04-26 12:57 19.02972 78.88896 39950 ft 485 kts 287°
2026-04-26 12:57 19.04949 78.82082 39950 ft 485 kts 287°
2026-04-26 12:58 19.07906 78.71872 39950 ft 485 kts 287°
2026-04-26 12:58 19.09865 78.65095 39950 ft 485 kts 287°
2026-04-26 12:59 19.11849 78.58299 39950 ft 485 kts 287°
2026-04-26 12:59 19.13838 78.51473 39950 ft 485 kts 287°
2026-04-26 13:00 19.15807 78.44649 39950 ft 485 kts 287°
2026-04-26 13:00 19.17750 78.37878 39950 ft 485 kts 287°
2026-04-26 13:01 19.19703 78.31040 39950 ft 485 kts 287°
2026-04-26 13:01 19.21651 78.24188 39950 ft 485 kts 287°
2026-04-26 13:02 19.23592 78.17368 39950 ft 485 kts 287°
2026-04-26 13:02 19.25433 78.10551 39949 ft 484 kts 284°
2026-04-26 13:03 19.27018 78.03615 39950 ft 484 kts 283°
2026-04-26 13:03 19.28570 77.96683 39950 ft 484 kts 283°
2026-04-26 13:04 19.30136 77.89782 39950 ft 484 kts 284°
2026-04-26 13:04 19.31735 77.82905 39950 ft 484 kts 284°
2026-04-26 13:05 19.33336 77.75978 39950 ft 484 kts 284°
2026-04-26 13:05 19.34929 77.69041 39950 ft 484 kts 284°
2026-04-26 13:06 19.36508 77.62142 39950 ft 484 kts 284°
2026-04-26 13:06 19.38086 77.55226 39950 ft 484 kts 284°
2026-04-26 13:07 19.39657 77.48326 39950 ft 484 kts 283°
2026-04-26 13:07 19.41233 77.41388 39950 ft 484 kts 283°
2026-04-26 13:08 19.42800 77.34460 39950 ft 484 kts 283°
2026-04-26 13:08 19.44352 77.27568 39950 ft 484 kts 283°
2026-04-26 13:09 19.45928 77.20600 39950 ft 484 kts 283°
2026-04-26 13:09 19.47488 77.13684 39950 ft 484 kts 283°
2026-04-26 13:10 19.49036 77.06779 39950 ft 484 kts 283°
2026-04-26 13:10 19.50583 76.99849 39950 ft 484 kts 283°
2026-04-26 13:11 19.52135 76.92875 39950 ft 484 kts 283°
2026-04-26 13:11 19.53665 76.85986 39950 ft 484 kts 283°
2026-04-26 13:12 19.55230 76.79041 39950 ft 484 kts 284°
2026-04-26 13:12 19.56813 76.72138 39950 ft 484 kts 284°
2026-04-26 13:13 19.58395 76.65195 39950 ft 484 kts 283°
2026-04-26 13:13 19.59971 76.58245 39950 ft 484 kts 283°
2026-04-26 13:14 19.61528 76.51354 39950 ft 484 kts 283°
2026-04-26 13:14 19.63096 76.44399 39950 ft 484 kts 283°
2026-04-26 13:15 19.64650 76.37496 39950 ft 484 kts 283°
2026-04-26 13:15 19.66151 76.30797 39950 ft 484 kts 283°
2026-04-26 13:16 19.67750 76.23640 39950 ft 484 kts 283°
2026-04-26 13:16 19.69302 76.16690 39950 ft 484 kts 283°
2026-04-26 13:17 19.71625 76.06278 39950 ft 484 kts 283°
2026-04-26 13:18 19.73946 75.95843 39950 ft 484 kts 283°
2026-04-26 13:19 19.76257 75.85429 39950 ft 484 kts 283°
2026-04-26 13:19 19.77790 75.78501 39950 ft 484 kts 283°
2026-04-26 13:20 19.79333 75.71510 39950 ft 484 kts 283°
2026-04-26 13:20 19.80859 75.64585 39950 ft 484 kts 283°
2026-04-26 13:21 19.82391 75.57614 39950 ft 484 kts 283°
2026-04-26 13:21 19.83907 75.50696 39950 ft 484 kts 283°
2026-04-26 13:22 19.85431 75.43724 39949 ft 484 kts 283°
2026-04-26 13:22 19.86890 75.36739 39949 ft 484 kts 282°
2026-04-26 13:23 19.88183 75.29751 39950 ft 484 kts 281°
2026-04-26 13:23 19.89468 75.22737 39950 ft 484 kts 281°
2026-04-26 13:24 19.90758 75.15739 39950 ft 484 kts 281°
2026-04-26 13:24 19.92056 75.08705 39950 ft 484 kts 281°
2026-04-26 13:25 19.93355 75.01666 39950 ft 484 kts 281°
2026-04-26 13:25 19.94644 74.94667 39950 ft 484 kts 281°
2026-04-26 13:26 19.95928 74.87681 39950 ft 484 kts 281°
2026-04-26 13:26 19.97216 74.80657 39950 ft 484 kts 281°
2026-04-26 13:27 19.98501 74.73632 39950 ft 484 kts 281°
2026-04-26 13:27 19.99780 74.66621 39950 ft 484 kts 281°
2026-04-26 13:28 20.01060 74.59592 39950 ft 484 kts 281°
2026-04-26 13:28 20.02333 74.52583 39949 ft 484 kts 281°
2026-04-26 13:29 20.03607 74.45555 39949 ft 484 kts 281°
2026-04-26 13:29 20.04878 74.38525 39949 ft 484 kts 281°
2026-04-26 13:30 20.06139 74.31523 39950 ft 484 kts 281°
2026-04-26 13:30 20.07405 74.24462 39950 ft 484 kts 281°
2026-04-26 13:31 20.08661 74.17456 39950 ft 484 kts 281°
2026-04-26 13:31 20.09921 74.10415 39950 ft 484 kts 281°
2026-04-26 13:32 20.11203 74.03374 39950 ft 484 kts 281°
2026-04-26 13:32 20.12472 73.96378 39950 ft 484 kts 281°
2026-04-26 13:33 20.13736 73.89317 39950 ft 484 kts 281°
2026-04-26 13:33 20.14982 73.82297 39950 ft 484 kts 281°
2026-04-26 13:34 20.16225 73.75271 39950 ft 484 kts 281°
2026-04-26 13:34 20.17467 73.68227 39950 ft 484 kts 281°
2026-04-26 13:35 20.18706 73.61178 39950 ft 484 kts 281°
2026-04-26 13:35 20.19935 73.54171 39950 ft 484 kts 281°
2026-04-26 13:36 20.21168 73.47112 39950 ft 484 kts 281°
2026-04-26 13:36 20.22394 73.40062 39950 ft 484 kts 281°
2026-04-26 13:37 20.23614 73.33003 39950 ft 484 kts 280°
2026-04-26 13:37 20.24824 73.25990 39950 ft 484 kts 281°
2026-04-26 13:38 20.26139 73.18957 39950 ft 484 kts 281°
2026-04-26 13:38 20.27479 73.11944 39950 ft 484 kts 281°
2026-04-26 13:39 20.28806 73.04916 39950 ft 484 kts 281°
2026-04-26 13:39 20.30121 72.97900 39950 ft 484 kts 281°
2026-04-26 13:40 20.31432 72.90875 39950 ft 484 kts 281°
2026-04-26 13:40 20.32744 72.83821 39950 ft 484 kts 281°
2026-04-26 13:41 20.34046 72.76808 39950 ft 484 kts 281°
2026-04-26 13:41 20.35353 72.69752 39950 ft 484 kts 281°
2026-04-26 13:42 20.36652 72.62717 39950 ft 484 kts 281°
2026-04-26 13:42 20.37948 72.55681 39950 ft 484 kts 281°
2026-04-26 13:43 20.39236 72.48677 39950 ft 484 kts 281°
2026-04-26 13:43 20.40529 72.41622 39950 ft 484 kts 281°
2026-04-26 13:44 20.41810 72.34618 39950 ft 484 kts 281°
2026-04-26 13:44 20.43089 72.27570 39950 ft 484 kts 281°
2026-04-26 13:45 20.44366 72.20530 39950 ft 484 kts 281°
2026-04-26 13:45 20.45645 72.13460 39950 ft 484 kts 281°
2026-04-26 13:46 20.46916 72.06408 39950 ft 484 kts 281°
2026-04-26 13:46 20.48190 71.99371 39950 ft 484 kts 281°
2026-04-26 13:47 20.49466 71.92355 39950 ft 484 kts 281°
2026-04-26 13:47 20.50736 71.85317 39950 ft 484 kts 281°
2026-04-26 13:48 20.52001 71.78259 39950 ft 484 kts 281°
2026-04-26 13:48 20.53258 71.71217 39950 ft 485 kts 281°
2026-04-26 13:49 20.54516 71.64148 39950 ft 485 kts 281°
2026-04-26 13:49 20.55769 71.57089 39950 ft 485 kts 281°
2026-04-26 13:50 20.57015 71.50056 39950 ft 485 kts 281°
2026-04-26 13:50 20.58263 71.42989 39950 ft 485 kts 281°
2026-04-26 13:51 20.59505 71.35941 39950 ft 485 kts 281°
2026-04-26 13:51 20.60740 71.28890 39950 ft 485 kts 280°
2026-04-26 13:52 20.61972 71.21843 39950 ft 485 kts 280°
2026-04-26 13:52 20.63206 71.14774 39950 ft 485 kts 280°
2026-04-26 13:53 20.64436 71.07724 39950 ft 485 kts 280°
2026-04-26 13:53 20.65670 71.00630 39950 ft 485 kts 280°
2026-04-26 13:54 20.66891 70.93597 39950 ft 485 kts 280°
2026-04-26 13:54 20.68119 70.86506 39950 ft 485 kts 280°
2026-04-26 13:55 20.69737 70.77131 39950 ft 485 kts 280°
2026-04-26 13:56 20.71767 70.65329 39950 ft 485 kts 280°
2026-04-26 13:56 20.72977 70.58267 39950 ft 485 kts 280°
2026-04-26 13:57 20.74191 70.51170 39950 ft 485 kts 280°
2026-04-26 13:57 20.75396 70.44099 39950 ft 485 kts 280°
2026-04-26 13:58 20.76598 70.37035 39950 ft 485 kts 280°
2026-04-26 13:58 20.77797 70.29951 39950 ft 485 kts 280°
2026-04-26 13:59 20.78988 70.22887 39950 ft 485 kts 280°
2026-04-26 13:59 20.80181 70.15809 39950 ft 485 kts 280°
2026-04-26 14:00 20.82555 70.01684 39950 ft 485 kts 280°
2026-04-26 14:01 20.83740 69.94600 39950 ft 485 kts 280°
2026-04-26 14:01 20.84923 69.87518 39950 ft 485 kts 280°
2026-04-26 14:02 20.86103 69.80434 39950 ft 485 kts 280°
2026-04-26 14:02 20.87278 69.73359 39950 ft 485 kts 280°
2026-04-26 14:03 20.88456 69.66250 39950 ft 485 kts 280°
2026-04-26 14:03 20.89624 69.59181 39950 ft 485 kts 280°
2026-04-26 14:04 20.90801 69.52034 39949 ft 485 kts 280°
2026-04-26 14:04 20.91960 69.44974 39949 ft 485 kts 280°
2026-04-26 14:05 20.93128 69.37834 39949 ft 485 kts 280°
2026-04-26 14:05 20.94278 69.30767 39950 ft 485 kts 279°
2026-04-26 14:06 20.95427 69.23666 39950 ft 485 kts 279°
2026-04-26 14:06 20.96640 69.16596 39950 ft 485 kts 282°
2026-04-26 14:07 20.98411 69.09675 39951 ft 485 kts 288°
2026-04-26 14:07 21.00862 69.02957 39951 ft 485 kts 294°
2026-04-26 14:08 21.03615 68.96383 39950 ft 485 kts 294°
2026-04-26 14:08 21.06381 68.89796 39950 ft 485 kts 294°
2026-04-26 14:09 21.09116 68.83255 39950 ft 485 kts 294°
2026-04-26 14:09 21.11889 68.76638 39950 ft 485 kts 294°
2026-04-26 14:10 21.14639 68.70096 39950 ft 485 kts 294°
2026-04-26 14:10 21.17381 68.63529 39950 ft 485 kts 294°
2026-04-26 14:11 21.21489 68.53635 39950 ft 485 kts 294°
2026-04-26 14:11 21.24230 68.47017 39950 ft 485 kts 294°
2026-04-26 14:12 21.26942 68.40456 39950 ft 485 kts 294°
2026-04-26 14:12 21.29673 68.33843 39950 ft 485 kts 294°
2026-04-26 14:13 21.33739 68.23938 39950 ft 485 kts 294°
2026-04-26 14:14 21.36440 68.17363 39950 ft 485 kts 294°
2026-04-26 14:14 21.39150 68.10765 39950 ft 485 kts 294°
2026-04-26 14:15 21.41878 68.04118 39950 ft 485 kts 294°
2026-04-26 14:15 21.44589 67.97505 39950 ft 485 kts 294°
2026-04-26 14:16 21.47285 67.90919 39950 ft 485 kts 294°
2026-04-26 14:16 21.49983 67.84322 39950 ft 485 kts 294°
2026-04-26 14:17 21.52684 67.77704 39950 ft 485 kts 294°
2026-04-26 14:17 21.55391 67.71066 39950 ft 485 kts 294°
2026-04-26 14:18 21.58077 67.64471 39950 ft 485 kts 294°
2026-04-26 14:18 21.60777 67.57832 39950 ft 485 kts 294°
2026-04-26 14:19 21.63469 67.51202 39950 ft 485 kts 294°
2026-04-26 14:19 21.66160 67.44567 39950 ft 485 kts 294°
2026-04-26 14:20 21.68847 67.37933 39950 ft 485 kts 294°
2026-04-26 14:20 21.71532 67.31284 39950 ft 485 kts 293°
2026-04-26 14:21 21.74193 67.24664 39950 ft 485 kts 293°
2026-04-26 14:21 21.76880 67.17991 39950 ft 485 kts 293°
2026-04-26 14:22 21.79544 67.11372 39950 ft 485 kts 293°
2026-04-26 14:22 21.82221 67.04715 39950 ft 485 kts 293°
2026-04-26 14:23 21.84900 66.98046 39950 ft 485 kts 293°
2026-04-26 14:23 21.87559 66.91417 39950 ft 485 kts 293°
2026-04-26 14:24 21.90231 66.84744 39950 ft 485 kts 293°
2026-04-26 14:24 21.92886 66.78104 39950 ft 484 kts 293°
2026-04-26 14:25 21.95547 66.71439 39950 ft 484 kts 293°
2026-04-26 14:25 21.98186 66.64816 39950 ft 484 kts 293°
2026-04-26 14:26 22.00848 66.58122 39949 ft 484 kts 293°
2026-04-26 14:26 22.03479 66.51492 39949 ft 484 kts 293°
2026-04-26 14:27 22.06138 66.44809 39949 ft 484 kts 294°
2026-04-26 14:27 22.08798 66.38142 39949 ft 484 kts 293°
2026-04-26 14:28 22.11455 66.31473 39949 ft 484 kts 293°
2026-04-26 14:28 22.14104 66.24833 39950 ft 484 kts 293°
2026-04-26 14:29 22.16755 66.18149 39950 ft 484 kts 293°
2026-04-26 14:29 22.19378 66.11511 39950 ft 484 kts 293°
2026-04-26 14:30 22.22017 66.04817 39950 ft 485 kts 293°
2026-04-26 14:30 22.24647 65.98137 39950 ft 485 kts 293°
2026-04-26 14:31 22.27272 65.91455 39950 ft 485 kts 293°
2026-04-26 14:31 22.29904 65.84750 39950 ft 485 kts 293°
2026-04-26 14:32 23.03694 63.92089 39962 ft 485 kts 289°
2026-04-26 14:32 23.05602 63.85104 39951 ft 485 kts 283°
2026-04-26 14:33 23.06800 63.77898 39949 ft 485 kts 277°
2026-04-26 14:33 23.07565 63.70647 39949 ft 485 kts 276°
2026-04-26 14:34 23.08305 63.63360 39949 ft 485 kts 276°
2026-04-26 14:34 23.09046 63.56119 39949 ft 485 kts 276°
2026-04-26 14:35 23.09787 63.48883 39949 ft 484 kts 276°
2026-04-26 14:35 23.10545 63.41623 39950 ft 484 kts 277°
2026-04-26 14:36 23.11316 63.34338 39950 ft 484 kts 276°
2026-04-26 14:36 23.12060 63.27094 39950 ft 484 kts 276°
2026-04-26 14:37 23.12794 63.19835 39950 ft 484 kts 276°
2026-04-26 14:37 23.13522 63.12580 39950 ft 484 kts 276°
2026-04-26 14:38 23.14246 63.05344 39950 ft 484 kts 276°
2026-04-26 14:38 23.14968 62.98080 39950 ft 484 kts 276°
2026-04-26 14:39 23.15689 62.90802 39950 ft 484 kts 276°
2026-04-26 14:39 23.16405 62.83537 39950 ft 484 kts 276°
2026-04-26 14:40 23.17116 62.76292 39950 ft 484 kts 276°
2026-04-26 14:40 23.17824 62.69031 39950 ft 484 kts 276°
2026-04-26 14:41 23.18532 62.61747 39950 ft 484 kts 276°
2026-04-26 14:41 23.19237 62.54453 39950 ft 484 kts 276°
2026-04-26 14:42 23.19933 62.47218 39950 ft 484 kts 276°
2026-04-26 14:42 23.20629 62.39952 39950 ft 484 kts 276°
2026-04-26 14:43 23.21323 62.32659 39950 ft 484 kts 276°
2026-04-26 14:43 23.22008 62.25402 39950 ft 484 kts 276°
2026-04-26 14:44 23.22688 62.18162 39950 ft 484 kts 276°
2026-04-26 14:44 23.23372 62.10877 39950 ft 484 kts 276°
2026-04-26 14:45 23.24049 62.03618 39950 ft 484 kts 276°
2026-04-26 14:45 23.24725 61.96339 39950 ft 484 kts 276°
2026-04-26 14:46 23.25399 61.89040 39950 ft 484 kts 276°
2026-04-26 14:46 23.26068 61.81759 39950 ft 484 kts 276°
2026-04-26 14:47 23.26732 61.74492 39950 ft 484 kts 276°
2026-04-26 14:47 23.27393 61.67220 39950 ft 484 kts 276°
2026-04-26 14:48 23.28050 61.59942 39950 ft 484 kts 276°
2026-04-26 14:48 23.28703 61.52673 39950 ft 484 kts 276°
2026-04-26 14:49 23.29352 61.45406 39950 ft 484 kts 276°
2026-04-26 14:49 23.29999 61.38093 39950 ft 484 kts 276°
2026-04-26 14:50 23.30638 61.30795 39950 ft 484 kts 275°
2026-04-26 14:50 23.31268 61.23529 39950 ft 484 kts 275°
2026-04-26 14:51 23.31989 61.16254 39949 ft 484 kts 277°
2026-04-26 14:51 23.32912 61.09021 39950 ft 484 kts 278°
2026-04-26 14:52 23.33835 61.01756 39950 ft 484 kts 278°
2026-04-26 14:52 23.34742 60.94507 39950 ft 484 kts 278°
2026-04-26 14:53 23.35641 60.87241 39950 ft 484 kts 277°
2026-04-26 14:53 23.36532 60.79980 39950 ft 484 kts 277°
2026-04-26 14:54 23.37423 60.72756 39949 ft 485 kts 278°
2026-04-26 14:54 23.38720 60.65556 39949 ft 484 kts 284°
2026-04-26 14:55 23.40680 60.58593 39949 ft 484 kts 290°
2026-04-26 14:55 23.43141 60.51775 39950 ft 484 kts 292°
2026-04-26 14:56 23.45651 60.44958 39950 ft 484 kts 292°
2026-04-26 14:56 23.48129 60.38195 39950 ft 484 kts 292°
2026-04-26 14:57 23.50615 60.31370 39950 ft 484 kts 291°
2026-04-26 14:57 23.53081 60.24566 39950 ft 484 kts 291°
2026-04-26 14:58 23.55564 60.17717 39950 ft 484 kts 291°
2026-04-26 14:58 23.58019 60.10941 39950 ft 484 kts 291°
2026-04-26 14:59 23.60496 60.04100 39950 ft 484 kts 291°
2026-04-26 14:59 23.62967 59.97263 39950 ft 484 kts 291°
2026-04-26 15:00 23.65424 59.90456 39950 ft 484 kts 291°
2026-04-26 15:00 23.67889 59.83616 39950 ft 484 kts 291°
2026-04-26 15:01 23.70350 59.76777 39950 ft 484 kts 291°
2026-04-26 15:01 23.72795 59.69967 39950 ft 484 kts 291°
2026-04-26 15:02 23.75244 59.63136 39950 ft 485 kts 291°
2026-04-26 15:02 23.77693 59.56295 39950 ft 485 kts 291°
2026-04-26 15:03 23.80135 59.49459 39950 ft 485 kts 291°
2026-04-26 15:03 23.82576 59.42616 39949 ft 485 kts 291°
2026-04-26 15:04 23.85025 59.35735 39949 ft 485 kts 291°
2026-04-26 15:04 23.87456 59.28867 39950 ft 485 kts 291°
2026-04-26 15:05 23.89871 59.22030 39950 ft 485 kts 291°
2026-04-26 15:05 23.92294 59.15183 39950 ft 485 kts 291°
2026-04-26 15:06 23.94616 59.08294 39950 ft 485 kts 289°
2026-04-26 15:06 23.96841 59.01314 39950 ft 485 kts 289°
2026-04-26 15:07 24.00156 58.90918 39950 ft 485 kts 289°
2026-04-26 15:07 24.02377 58.83962 39950 ft 485 kts 289°
2026-04-26 15:08 24.04588 58.77029 39950 ft 485 kts 289°
2026-04-26 15:08 24.06801 58.70074 39950 ft 485 kts 289°
2026-04-26 15:09 24.08994 58.63159 39949 ft 485 kts 289°
2026-04-26 15:09 24.11228 58.56154 39950 ft 485 kts 290°
2026-04-26 15:10 24.13101 58.50365 39950 ft 485 kts 289°
2026-04-26 15:10 24.15674 58.42319 39950 ft 485 kts 289°
2026-04-26 15:11 24.17869 58.35393 39950 ft 484 kts 289°
2026-04-26 15:11 24.20048 58.28464 39950 ft 484 kts 289°
2026-04-26 15:12 24.22243 58.21463 39950 ft 484 kts 289°
2026-04-26 15:12 24.24407 58.14562 39632 ft 479 kts 289°
2026-04-26 15:13 24.25484 58.11126 39008 ft 480 kts 289°
2026-04-26 15:13 24.26563 58.07680 38228 ft 482 kts 289°
2026-04-26 15:13 24.27638 58.04248 37472 ft 484 kts 289°
2026-04-26 15:13 24.28726 58.00770 36753 ft 485 kts 289°
2026-04-26 15:14 24.29819 57.97274 36057 ft 485 kts 289°
2026-04-26 15:14 24.30914 57.93766 35396 ft 483 kts 289°
2026-04-26 15:14 24.31990 57.90314 34906 ft 479 kts 289°
2026-04-26 15:14 24.33064 57.86865 34331 ft 477 kts 289°
2026-04-26 15:15 24.34126 57.83449 33627 ft 477 kts 289°
2026-04-26 15:15 24.35198 57.80001 32841 ft 479 kts 289°
2026-04-26 15:15 24.36273 57.76539 32022 ft 482 kts 289°
2026-04-26 15:15 24.37355 57.73049 31184 ft 484 kts 289°
2026-04-26 15:16 24.38445 57.69529 30325 ft 487 kts 289°
2026-04-26 15:16 24.39522 57.66048 29454 ft 489 kts 289°
2026-04-26 15:16 24.40622 57.62482 28531 ft 492 kts 289°
2026-04-26 15:16 24.41703 57.58971 27646 ft 493 kts 289°
2026-04-26 15:17 24.42800 57.55411 27039 ft 487 kts 289°
2026-04-26 15:17 24.43519 57.53076 26665 ft 483 kts 289°
2026-04-26 15:17 24.44950 57.48459 25856 ft 476 kts 289°
2026-04-26 15:17 24.46006 57.45070 25235 ft 472 kts 289°
2026-04-26 15:18 24.47068 57.41650 24605 ft 468 kts 289°
2026-04-26 15:18 24.48106 57.38295 23984 ft 464 kts 289°
2026-04-26 15:18 24.49126 57.34983 23384 ft 460 kts 288°
2026-04-26 15:18 24.50138 57.31682 23036 ft 457 kts 288°
2026-04-26 15:19 24.51158 57.28344 22965 ft 458 kts 288°
2026-04-26 15:19 24.52177 57.25008 22960 ft 459 kts 288°
2026-04-26 15:19 24.53189 57.21696 22958 ft 459 kts 288°
2026-04-26 15:19 24.54199 57.18391 22957 ft 459 kts 288°
2026-04-26 15:20 24.55221 57.15045 22957 ft 459 kts 288°
2026-04-26 15:20 24.56236 57.11717 22957 ft 459 kts 288°
2026-04-26 15:20 24.57243 57.08414 22957 ft 459 kts 288°
2026-04-26 15:20 24.58260 57.05070 22957 ft 459 kts 288°
2026-04-26 15:21 24.59278 57.01723 22782 ft 458 kts 288°
2026-04-26 15:21 24.60274 56.98438 22535 ft 456 kts 288°
2026-04-26 15:21 24.61271 56.95150 22285 ft 454 kts 288°
2026-04-26 15:21 24.62274 56.91843 22033 ft 453 kts 288°
2026-04-26 15:22 24.63283 56.88564 21782 ft 451 kts 290°
2026-04-26 15:22 24.64437 56.85381 21533 ft 450 kts 294°
2026-04-26 15:22 24.65796 56.82279 21281 ft 448 kts 298°
2026-04-26 15:22 24.67319 56.79335 21034 ft 447 kts 301°
2026-04-26 15:23 24.68923 56.76420 20783 ft 445 kts 301°
2026-04-26 15:23 24.70476 56.73529 20532 ft 443 kts 297°
2026-04-26 15:23 24.71819 56.70451 20271 ft 442 kts 294°
2026-04-26 15:23 24.73044 56.67378 19987 ft 440 kts 293°
2026-04-26 15:24 24.74264 56.64279 19604 ft 438 kts 294°
2026-04-26 15:24 24.75454 56.61276 19173 ft 435 kts 294°
2026-04-26 15:24 24.76686 56.58197 18707 ft 431 kts 294°
2026-04-26 15:24 24.77862 56.55280 18253 ft 428 kts 294°
2026-04-26 15:25 24.79087 56.52252 17776 ft 424 kts 294°
2026-04-26 15:25 24.79877 56.50303 17467 ft 422 kts 294°
2026-04-26 15:25 24.81456 56.46405 16840 ft 417 kts 294°
2026-04-26 15:25 24.82638 56.43489 16292 ft 414 kts 294°
2026-04-26 15:26 24.83801 56.40622 15626 ft 413 kts 294°
2026-04-26 15:26 24.84959 56.37763 15019 ft 411 kts 294°
2026-04-26 15:26 24.86109 56.34922 14443 ft 407 kts 294°
2026-04-26 15:26 24.87250 56.32093 13865 ft 404 kts 294°
2026-04-26 15:27 24.88385 56.29271 13282 ft 401 kts 294°
2026-04-26 15:27 24.89494 56.26516 12706 ft 398 kts 294°
2026-04-26 15:27 24.90610 56.23745 12124 ft 394 kts 294°
2026-04-26 15:27 24.91719 56.20990 11539 ft 391 kts 294°
2026-04-26 15:28 24.92817 56.18262 10955 ft 388 kts 294°
2026-04-26 15:28 24.93906 56.15558 10463 ft 382 kts 294°
2026-04-26 15:28 24.94881 56.12895 10221 ft 370 kts 290°
2026-04-26 15:28 24.95716 56.10262 9976 ft 354 kts 289°
2026-04-26 15:29 24.96473 56.07792 9434 ft 333 kts 288°
2026-04-26 15:29 24.97186 56.05463 8867 ft 316 kts 289°
2026-04-26 15:29 24.98523 56.01137 8025 ft 283 kts 289°
2026-04-26 15:30 24.99792 55.97062 6603 ft 280 kts 289°
2026-04-26 15:30 25.00434 55.95011 6209 ft 282 kts 289°
2026-04-26 15:30 25.01068 55.92983 6114 ft 280 kts 289°
2026-04-26 15:31 25.01695 55.90982 6056 ft 278 kts 289°
2026-04-26 15:31 25.02958 55.86951 5379 ft 278 kts 289°
2026-04-26 15:31 25.03580 55.84965 5063 ft 277 kts 289°
2026-04-26 15:32 25.04624 55.81628 4539 ft 275 kts 289°
2026-04-26 15:32 25.05442 55.79012 4162 ft 272 kts 289°
2026-04-26 15:32 25.06058 55.77038 4110 ft 272 kts 289°
2026-04-26 15:33 25.06680 55.75043 4103 ft 273 kts 289°
2026-04-26 15:33 25.07288 55.73092 4070 ft 271 kts 289°
2026-04-26 15:33 25.07899 55.71133 3771 ft 270 kts 289°
2026-04-26 15:33 25.08503 55.69196 3547 ft 266 kts 289°
2026-04-26 15:34 25.09089 55.67313 3354 ft 260 kts 289°
2026-04-26 15:34 25.09670 55.65449 3167 ft 255 kts 289°
2026-04-26 15:34 25.10281 55.63652 2984 ft 250 kts 295°
2026-04-26 15:34 25.11124 55.61976 2785 ft 246 kts 302°
2026-04-26 15:35 25.12021 55.60399 2649 ft 239 kts 302°
2026-04-26 15:35 25.12884 55.58889 2463 ft 236 kts 302°
2026-04-26 15:35 25.13739 55.57364 2245 ft 234 kts 302°
2026-04-26 15:35 25.14582 55.55837 2108 ft 227 kts 301°
2026-04-26 15:36 25.15369 55.54401 2099 ft 214 kts 301°
2026-04-26 15:36 25.16121 55.53027 2091 ft 201 kts 301°
2026-04-26 15:36 25.16807 55.51778 2096 ft 187 kts 301°
2026-04-26 15:36 25.17423 55.50656 2106 ft 170 kts 301°
2026-04-26 15:37 25.18012 55.49588 2091 ft 160 kts 301°
2026-04-26 15:37 25.18582 55.48555 1938 ft 155 kts 301°
2026-04-26 15:37 25.19130 55.47561 1743 ft 152 kts 301°
2026-04-26 15:37 25.19678 55.46568 1548 ft 151 kts 301°
2026-04-26 15:38 25.20222 55.45581 1354 ft 151 kts 301°
2026-04-26 15:38 25.20760 55.44608 1161 ft 150 kts 301°
2026-04-26 15:38 25.21304 55.43625 943 ft 150 kts 301°
2026-04-26 15:38 25.21847 55.42643 741 ft 149 kts 302°
2026-04-26 15:39 25.22387 55.41668 557 ft 149 kts 302°
2026-04-26 15:39 25.22927 55.40692 371 ft 148 kts 302°
2026-04-26 15:39 25.23458 55.39735 176 ft 146 kts 302°
2026-04-26 15:39 25.23813 55.39096 90 ft 144 kts 302°
2026-04-26 15:40 25.24364 55.38090 76 ft 80 kts 301°
2026-04-26 15:40 25.24573 55.37712 76 ft 48 kts 302°
2026-04-26 15:40 25.24758 55.37345 76 ft 57 kts 289°
2026-04-26 15:40 25.24789 55.37076 76 ft 27 kts 271°
2026-04-26 15:41 25.24819 55.36916 76 ft 12 kts 295°
2026-04-26 15:41 25.24854 55.36822 76 ft 13 kts 288°
2026-04-26 15:41 25.24868 55.36743 76 ft 10 kts 283°
2026-04-26 15:41 25.24894 55.36666 76 ft 11 kts 297°
2026-04-26 15:42 25.24907 55.36589 76 ft 9 kts 231°
2026-04-26 15:42 25.24855 55.36555 76 ft 13 kts 210°
2026-04-26 15:42 25.24779 55.36505 76 ft 5 kts 212°
2026-04-26 15:42 25.24760 55.36492 76 ft 0 kts 211°